Regional Weather Roundup
Issued by NWS Upton, NY

Current Version | Previous Version | Graphics & Text | Print | Product List | Glossary Off
Versions: 1 2 3 4 5 6 7 8 9 10 11 12 13 14 15 16 17 18 19 20 21 22 23 24 25 26 27 28 29 30 31 32 33 34 35 36 37 38 39 40 41 42 43 44 45 46 47 48 49 50

000
ASUS41 KOKX 292005
RWROKX

REGIONAL WEATHER ROUNDUP
NATIONAL WEATHER SERVICE NEW YORK NY
400 PM EDT MON SEP 29 2014

NOTE: "FAIR" INDICATES FEW OR NO CLOUDS BELOW 12,000 FEET WITH NO
SIGNIFICANT WEATHER AND/OR OBSTRUCTIONS TO VISIBILITY.

NYZ071-072-176-178-NJZ106-104-292100-
NEW YORK CITY METRO AREA


CITY           SKY/WX    TMP DP  RH WIND       PRES   REMARKS
CENTRAL PARK   CLOUDY    78  56  46 CALM      29.94F
LAGUARDIA APRT CLOUDY    77  58  51 NW5       29.91F
KENNEDY INTL   CLOUDY    73  61  65 S5        29.93F
NEWARK/LIBERTY CLOUDY    79  55  43 W8G17     29.91F
BRNX BOT. GARD   N/A     77  59  53 SE3       29.94S
TETERBORO      CLOUDY    78  56  46 W5        29.90F
$$

NYZ177-179-078>081-292100-
LONG ISLAND NEW YORK

CITY           SKY/WX    TMP DP  RH WIND       PRES   REMARKS
FARMINGDALE    CLOUDY    73  62  68 S6        29.93S
ISLIP          CLOUDY    72  61  68 SW6       29.91F
SHIRLEY        CLOUDY    71  63  75 S9        29.94S
WESTHAMPTON    CLOUDY    71  63  75 SW6       29.95S
MONTAUK POINT    N/A     70  66  87 S7        29.95S
$$

NYZ052-065-067-292100-
HUDSON VALLEY

CITY           SKY/WX    TMP DP  RH WIND       PRES   REMARKS
WHITE PLAINS   CLOUDY    73  56  54 CALM      29.92F
NEWBURGH       PTSUNNY   75  61  60 CALM      29.94F
MONTGOMERY     CLOUDY    77  57  50 SW3       29.92F
POUGHKEEPSIE   CLOUDY    77  57  50 CALM      29.91F
ALBANY         CLOUDY    71  57  61 CALM      29.93F
$$

NJZ001-105-106-008-010-013-015-019>022-104-292100-
NEW JERSEY

CITY           SKY/WX    TMP DP  RH WIND       PRES   REMARKS
NEWARK/LIBERTY CLOUDY    79  55  43 W8G17     29.91F
TETERBORO      CLOUDY    78  56  46 W5        29.90F
CALDWELL       CLOUDY    75  58  55 SW3       29.92F
MORRISTOWN     CLOUDY    77  59  53 W6        29.93F
SOMERVILLE     CLOUDY    76  59  55 CALM      29.90F
LINDEN         FAIR      81  61  50 S3        29.93F
SUSSEX         CLOUDY    78  59  51 CALM      29.92F
ANDOVER          N/A     74  58  57 CALM      29.93F
TRENTON        CLOUDY    74  58  57 SW5       29.92F
MILLVILLE      CLOUDY    72  62  71 CALM      29.93F
ATLANTIC CITY  CLOUDY    75  60  59 W7        29.94F
WRIGHTSTOWN    CLOUDY    72  64  78 S2        29.90F
TOMS RIVER     CLOUDY    73  63  68 CALM      29.93F
BELMAR         CLOUDY    73  61  64 S6        29.92F
$$

PAZ047>061-062-071-292100-
EASTERN PENNSYLVANIA

CITY           SKY/WX    TMP DP  RH WIND       PRES   REMARKS
PHILADELPHIA   CLOUDY    73  61  65 SW7       29.93F
ALLENTOWN      CLOUDY    75  57  53 SW6       29.93S
SCRANTON       CLOUDY    73  57  57 W3        29.94F
$$

CTZ002-004>006-009-010-012-RIZ004-006-007-MAZ004-011-015-292100-
SOUTHERN NEW ENGLAND
 IN CT

CITY           SKY/WX    TMP DP  RH WIND       PRES   REMARKS
BRADLEY INTL   CLOUDY    75  59  57 E3        29.92S
HARTFORD       CLOUDY    71  62  73 MISG      29.92F
DANBURY        CLOUDY    75  60  59 CALM      29.94F
WTRBRY/OXFORD  MOSUNNY   73  59  60 CALM      29.95F
BRIDGEPORT     CLOUDY    75  50  41 SW3       29.92F
MERIDEN        CLOUDY    76  60  57 SW5       29.93R
NEW HAVEN      CLOUDY    76  60  57 S6        29.93S
CHESTER        FAIR      73  66  78 S5        29.95R
GROTON         CLOUDY    68  65  90 S5        29.93S
WILLIMANTIC    CLOUDY    75  61  61 N5        29.94S

 IN RI

CITY           SKY/WX    TMP DP  RH WIND       PRES   REMARKS
PROVIDENCE     CLOUDY    72  64  76 S5        29.95R
BLOCK ISLAND   CLOUDY    70  64  83 SW12      29.94S
WESTERLY       CLOUDY    69  64  84 S5        29.94S

 IN MA

CITY           SKY/WX    TMP DP  RH WIND       PRES   REMARKS
BOSTON         CLOUDY    67  59  75 NE17      29.96R
WORCESTER      PTSUNNY   72  60  66 E5        29.97S
WESTFIELD      CLOUDY    76  59  55 CALM      29.93S
PROVINCETOWN   CLOUDY    66  61  82 N6        29.95R
NANTUCKET      CLOUDY    69  64  84 SW8       29.94F
$$

ANZ330-335-338-340-345-350-353-355-292100-
COASTAL MARINE OBSERVATIONS


STATION/POSITION TIME  SKY/WX   TEMP    WIND        PRES    VSBY  WAVE
                                AIR SEA DIR/SP/G                  HT/PER
                 (UTC)          (F)     (DEG/KT/KT) (MB)    (MI)  (FT/S)
NY HARB ENTRANCE 2000            69 69  150/  6/  6 1013.7          2/ 8
4S FIRE IS       2000               69                N/A           2/ 8
20S FIRE ISLAND  2000            68 68  200/  6/  6 1013.6          2/ 8
23SW MTP         2000                                 N/A           2/ 8
HUDSON CANYON    2000            69 71  230/  8/ 10 1014.1          2/ 9
EXECUTION ROCKS  2000            73 70  100/  4/  6   N/A
WESTERN LI SOUND 2000            72      CALM  /  2   N/A           0
CENTRAL LI SOUND 1900            70 69   CALM  /  2   N/A           0
EASTERN LI SOUND 1900            68 67  140/  4/  6   N/A
ROBBINS REEF     2000            72     170/  9/ 10 1011.8
$$


>>>>>>>>>>>>>>>>>>>>>>>>>>>> KEY <<<<<<<<<<<<<<<<<<<<<<<<<<<
>                                                          <
>     SKY/WX - SKY CONDITION/PRESENT WEATHER               <
>     TMP    - TEMPERATURE IN FAHRENHEIT                   <
>     DP     - DEWPOINT IN FAHRENHEIT                      <
>     RH     - RELATIVE HUMIDITY IN PERCENT                <
>     WIND   - DIRECTION AND SPEED IN MPH                  <
>     PRES   - MEAN SEA LEVEL PRESSURE IN INCHES OF HG     <
>     WCI    - WIND CHILL INDEX                            <
>     VSB    - VISIBILITY IN MILES                         <
>     HX     - HEAT INDEX                                  <
>     TC     - TEMPERATURE IN CELSIUS                      <
>     VRB    - VARIABLE WIND DIRECTION                     <
>                                                          <
>>>>>>>>>>>>>>>>>>>>>>>>>>>> KEY <<<<<<<<<<<<<<<<<<<<<<<<<<<




USA.gov is the U.S. government's official web portal to all federal, state and local government web resources and services.